GW7408 Weather Reports


Display with metric or nautical units.
time (UTC)temp
F
wind
direction
speed
MPH
gust
MPH
rain 1hr
in
rain 24hr
in
rain mn
in
humidity
%
barometer
mb
20260831232215 72 0.0 0.0 0.00 0.00 0.00 86 1019.9
20260831231716 72 0.0 0.0 0.00 0.00 0.00 86 1020.1
20260831231218 72 0.0 0.0 0.00 0.00 0.00 86 1020.1
20260831230715 72 0.0 0.0 0.00 0.00 0.00 85 1020.1
20260831230222 73 0.0 0.0 0.00 0.00 0.00 84 1020.4
20260831225716 73 0.0 0.0 0.00 0.00 0.00 84 1020.4
20260831225215 73 0.0 0.0 0.00 0.00 0.00 84 1020.4
20260831224719 73 0.0 0.0 0.00 0.00 0.00 83 1020.3
20260831224215 73 0.0 0.0 0.00 0.00 0.00 82 1020.3
20260831223715 73 0.0 0.0 0.00 0.00 0.00 82 1020.3
20260831223219 73 0.0 0.0 0.00 0.00 0.00 82 1020.4
20260831222736 74 0.0 0.0 0.00 0.00 0.00 81 1020.4
20260831222235 74 0.0 0.0 0.00 0.00 0.00 81 1020.4
20260831221736 74 0.0 0.0 0.00 0.00 0.00 79 1020.4
20260831221218 74 0.0 0.0 0.00 0.00 0.00 77 1020.4
20260831220855 74 149 1.0 2.0 0.00 0.00 0.00 77 1020.4
20260831220216 74 0.0 0.0 0.00 0.00 0.00 77 1020.5
20260831215718 74 129 1.0 2.0 0.00 0.00 0.00 79 1020.5
20260831215234 75 129 0.0 1.0 0.00 0.00 0.00 77 1020.5
20260831214739 75 112 1.0 2.0 0.00 0.00 0.00 77 1020.7
20260831214218 75 13 0.0 2.0 0.00 0.00 0.00 78 1020.7
20260831213715 75 13 0.0 2.0 0.00 0.00 0.00 78 1020.7
20260831213219 75 0.0 0.0 0.00 0.00 0.00 78 1020.9
20260831212716 75 0.0 0.0 0.00 0.00 0.00 79 1020.9
20260831212215 75 13 0.0 2.0 0.00 0.00 0.00 78 1020.9
20260831211717 75 13 1.0 1.0 0.00 0.00 0.00 78 1020.9
20260831211216 75 13 1.0 1.0 0.00 0.00 0.00 80 1020.9
20260831210715 74 13 0.0 1.0 0.00 0.00 0.00 79 1020.9
20260831210219 74 0.0 0.0 0.00 0.00 0.00 80 1020.8
20260831205738 74 0.0 0.0 0.00 0.00 0.00 79 1020.8
20260831205215 74 13 0.0 2.0 0.00 0.00 0.00 79 1020.8
20260831204717 74 0.0 0.0 0.00 0.00 0.00 80 1020.9
20260831204218 74 0.0 0.0 0.00 0.00 0.00 81 1020.9
20260831203715 74 0.0 0.0 0.00 0.00 0.00 81 1020.9
20260831203240 75 0.0 0.0 0.00 0.00 0.00 79 1021.1
20260831202716 75 0.0 0.0 0.00 0.00 0.00 79 1021.2
20260831202217 75 0.0 0.0 0.00 0.00 0.00 79 1021.1
20260831201719 75 0.0 0.0 0.00 0.00 0.00 78 1021.3
20260831201215 75 0.0 0.0 0.00 0.00 0.00 77 1021.3
20260831200715 75 0.0 0.0 0.00 0.00 0.00 76 1021.3
20260831200217 75 13 1.0 1.0 0.00 0.00 0.00 76 1021.3
20260831195716 76 133 1.0 1.0 0.00 0.00 0.00 75 1021.3
20260831195215 75 133 1.0 1.0 0.00 0.00 0.00 75 1021.3
20260831194757 76 133 0.0 1.0 0.00 0.00 0.00 77 1021.4
20260831194216 75 133 1.0 1.0 0.00 0.00 0.00 76 1021.4
20260831193718 75 133 1.0 1.0 0.00 0.00 0.00 76 1021.4
20260831193217 76 133 1.0 1.0 0.00 0.00 0.00 76 1021.6
20260831192716 76 133 0.0 2.0 0.00 0.00 0.00 77 1021.6
20260831192215 76 0.0 0.0 0.00 0.00 0.00 75 1021.6
20260831191717 75 133 0.0 2.0 0.00 0.00 0.00
20260831191219 76 0.0 0.0 0.00 0.00 0.00
20260831190715 76 0.0 0.0 0.00 0.00 0.00 74 1021.8
20260831190217 75 0.0 0.0 0.00 0.00 0.00 74 1022.0
20260831185716 75 0.0 0.0 0.00 0.01 0.00 77 1022.0
20260831185235 75 0.0 0.0 0.00 0.02 0.00 75 1022.0
20260831184717 76 133 0.0 1.0 0.00 0.02 0.00 73 1021.9
20260831184239 76 133 1.0 1.0 0.00 0.02 0.00 74 1021.9
20260831183718 76 0.0 0.0 0.00 0.02 0.00 74 1021.9
20260831183217 76 0.0 0.0 0.00 0.02 0.00 75 1021.8
20260831182716 76 0.0 0.0 0.00 0.02 0.00 72 1021.8
20260831182235 75 0.0 0.0 0.00 0.02 0.00 77 1021.8
20260831181717 75 0.0 0.0 0.00 0.02 0.00 76 1021.8
20260831181219 75 0.0 0.0 0.00 0.02 0.00
20260831180735 75 133 0.0 1.0 0.00 0.02 0.00
20260831180217 75 129 0.0 1.0 0.00 0.02 0.00
20260831175716 76 0.0 0.0 0.00 0.02 0.00
20260831175215 76 0.0 0.0 0.00 0.02 0.00
20260831174717 76 163 0.0 1.0 0.00 0.02 0.00
20260831174219 76 133 1.0 1.0 0.00 0.02 0.00 71 1022.1
20260831173715 76 127 0.0 1.0 0.00 0.02 0.00 71 1022.1
20260831173217 76 176 1.0 2.0 0.00 0.02 0.00 73 1022.1
20260831172719 75 0.0 0.0 0.00 0.02 0.00 74 1022.1
20260831172238 75 0.0 0.0 0.00 0.02 0.00 76 1022.1
20260831171717 75 0.0 0.0 0.00 0.02 0.00 75 1022.2
20260831171236 75 0.0 0.0 0.00 0.02 0.00 76 1022.2
20260831170715 75 0.0 0.0 0.00 0.02 0.00 75 1022.2
20260831170217 75 264 1.0 1.0 0.00 0.02 0.00 75 1022.2
20260831165739 75 0.0 0.0 0.00 0.02 0.00 75 1022.1
20260831165215 75 0.0 0.0 0.00 0.02 0.00 76 1022.1
20260831164720 75 264 1.0 1.0 0.00 0.02 0.00 74 1022.1
20260831164219 75 0.0 0.0 0.00 0.02 0.00 73 1022.1
20260831163735 76 264 1.0 1.0 0.00 0.02 0.00 72 1022.1
20260831163217 76 264 0.0 1.0 0.00 0.02 0.00 72 1022.1
20260831162719 76 264 1.0 1.0 0.00 0.02 0.00 72 1022.1
20260831162215 76 0.0 0.0 0.00 0.02 0.00 70 1022.1
20260831161717 76 264 0.0 1.0 0.00 0.02 0.00 70 1022.1
20260831161216 76 264 1.0 1.0 0.00 0.02 0.00 70 1022.2
20260831160715 77 264 0.0 1.0 0.00 0.02 0.00 70 1022.2
20260831160217 76 264 2.0 2.0 0.00 0.02 0.00 71 1022.2
20260831155716 76 264 0.0 1.0 0.00 0.02 0.00 73 1022.3
20260831155221 75 264 1.0 1.0 0.00 0.02 0.00 73 1022.3
20260831154737 75 264 2.0 2.0 0.00 0.02 0.00 73 1022.2
20260831154216 76 264 1.0 1.0 0.00 0.02 0.00 72 1022.2
20260831153738 76 0.0 0.0 0.00 0.02 0.00 74 1022.2
20260831153220 75 135 2.0 3.0 0.00 0.02 0.00 73 1022.2
20260831152736 76 0.0 0.0 0.00 0.02 0.00 76 1022.3
20260831152215 75 157 1.0 2.0 0.00 0.02 0.00 74 1022.3
20260831151717 74 22 1.0 2.0 0.00 0.02 0.00 77 1022.3
20260831151216 73 33 1.0 1.0 0.00 0.02 0.00 77 1022.4
20260831150715 73 33 1.0 1.0 0.00 0.02 0.00 77 1022.4
20260831150240 73 33 0.0 1.0 0.00 0.02 0.00 77 1022.4
20260831145521 73 33 1.0 1.0 0.00 0.02 0.00 77 1022.5
20260831145017 72 48 1.0 2.0 0.00 0.02 0.00 78 1022.5
20260831144538 72 48 0.0 1.0 0.00 0.02 0.00 76 1022.6
20260831144015 72 48 1.0 1.0 0.00 0.02 0.00 77 1022.6
20260831143517 72 0.0 0.0 0.00 0.02 0.00 77 1022.6
20260831143036 72 54 1.0 1.0 0.00 0.02 0.00 77 1022.6
20260831142515 72 54 1.0 1.0 0.00 0.02 0.00 76 1022.6
20260831142020 72 59 0.0 1.0 0.00 0.02 0.00 75 1022.5
20260831141516 72 71 0.0 2.0 0.00 0.02 0.00 76 1022.5
20260831141015 73 0.0 0.0 0.00 0.02 0.00 75 1022.5
20260831140520 73 0.0 0.0 0.00 0.02 0.00 75 1022.4
20260831140016 72 0.0 0.0 0.00 0.02 0.00 74 1022.4
20260831135538 72 71 0.0 1.0 0.00 0.02 0.00 74 1022.4
20260831135017 72 0.0 0.0 0.00 0.02 0.00 75 1022.3
20260831134519 73 109 0.0 1.0 0.00 0.02 0.00 73 1022.3
20260831134015 72 0.0 0.0 0.00 0.02 0.00 78 1022.3
20260831133534 0 0.0 0.0 0.00 0.02 0.00
20260831133214 71 23 0.0 1.0 0.00 0.02 0.00 78 1022.3
20260831132716 71 0.0 0.0 0.00 0.02 0.00 80 1022.3
20260831132215 71 23 0.0 1.0 0.00 0.02 0.00 81 1022.3
20260831131734 71 0.0 0.0 0.00 0.02 0.00 81 1022.4
20260831131216 71 0.0 0.0 0.00 0.02 0.00 81 1022.4
20260831130718 71 0.0 0.0 0.00 0.02 0.00 81 1022.4
20260831130214 71 23 0.0 1.0 0.00 0.02 0.00 81 1022.4
20260831125716 71 0.0 0.0 0.00 0.02 0.00 81 1022.4
20260831125218 71 23 1.0 1.0 0.00 0.02 0.00 82 1022.4
20260831124714 70 23 0.0 1.0 0.00 0.02 0.00 83 1022.4
20260831124216 70 0.0 0.0 0.00 0.02 0.00 83 1022.4
20260831123715 70 23 0.0 1.0 0.00 0.02 0.00 83 1022.4
20260831123214 70 23 1.0 1.0 0.00 0.02 0.00 83 1022.3
20260831122716 71 23 1.0 1.0 0.00 0.02 0.00 83 1022.3
20260831122215 71 23 1.0 2.0 0.00 0.02 0.00 84 1022.3
20260831121737 71 23 0.0 2.0 0.00 0.02 0.00 84 1022.2
20260831121216 70 0.0 0.0 0.00 0.02 0.00 83 1022.2
20260831120718 70 23 1.0 2.0 0.00 0.02 0.00 84 1022.2
20260831120215 70 0.0 0.0 0.00 0.02 0.00
20260831115915 70 0.0 0.0 0.00 0.02 0.00 84 1022.1
20260831115416 70 164 0.0 1.0 0.00 0.02 0.00 85 1022.1
20260831114915 70 0.0 0.0 0.00 0.02 0.00 86 1022.1
20260831114414 70 0.0 0.0 0.00 0.02 0.00 87 1022.1
20260831113916 70 0.0 0.0 0.00 0.02 0.00 86 1022.1
20260831113415 69 0.0 0.0 0.00 0.02 0.00 86 1022.0
20260831112914 69 0.0 0.0 0.00 0.02 0.00 88 1022.0
20260831112419 69 0.0 0.0 0.00 0.02 0.00 89 1022.0
20260831111915 69 0.0 0.0 0.00 0.02 0.00 88 1021.8
20260831111417 69 0.0 0.0 0.00 0.02 0.00 89 1021.8
20260831110922 68 29 0.0 1.0 0.00 0.02 0.00 89 1021.8
20260831110415 68 0.0 0.0 0.00 0.02 0.00 90 1021.7
20260831105915 68 0.0 0.0 0.00 0.02 0.00 89 1021.6
20260831105436 68 29 0.0 1.0 0.00 0.02 0.00 89 1021.6
20260831104918 68 0.0 0.0 0.00 0.02 0.00 88 1021.6
20260831104417 69 0.0 0.0 0.00 0.02 0.00 88 1021.7
20260831103936 69 0.0 0.0 0.00 0.02 0.00 88 1021.7
20260831103418 69 0.0 0.0 0.00 0.02 0.00
20260831102915 69 29 1.0 1.0 0.00 0.02 0.00 87 1021.5
20260831102437 69 29 1.0 1.0 0.00 0.02 0.00 87 1021.5
20260831101915 69 0.0 0.0 0.00 0.02 0.00 88 1021.3
20260831101434 69 0.0 0.0 0.00 0.02 0.00 88 1021.3
20260831100919 69 0.0 0.0 0.00 0.02 0.00 89 1021.3
20260831100416 69 29 0.0 1.0 0.00 0.02 0.00 89 1021.1
20260831095914 69 0.0 0.0 0.00 0.02 0.00 89 1021.1
20260831095416 69 29 0.0 1.0 0.00 0.02 0.00 89 1021.1
20260831094941 70 29 1.0 1.0 0.00 0.02 0.00 89 1021.0
20260831094420 69 29 1.0 1.0 0.00 0.02 0.00 89 1021.0
20260831093917 70 29 1.0 2.0 0.00 0.02 0.00 90 1021.0
20260831093416 70 29 1.0 2.0 0.00 0.02 0.00 90 1020.7
20260831092915 70 29 1.0 1.0 0.00 0.02 0.00 91 1020.7
20260831092436 70 29 1.0 1.0 0.00 0.02 0.00 91 1020.7
20260831091916 70 29 2.0 2.0 0.00 0.02 0.00 91 1020.9
20260831091417 70 29 1.0 2.0 0.00 0.02 0.00 91 1020.9
20260831090916 70 29 1.0 2.0 0.00 0.02 0.00 90 1020.9
20260831090416 70 29 1.0 2.0 0.00 0.02 0.00 90 1021.0
20260831085914 70 29 2.0 2.0 0.00 0.02 0.00 90 1021.0
20260831085416 70 35 2.0 2.0 0.00 0.02 0.00 90 1021.0
20260831084916 70 179 1.0 1.0 0.00 0.02 0.00 89 1020.9
20260831084415 70 179 0.0 1.0 0.00 0.02 0.00 89 1020.9
20260831083917 70 179 1.0 1.0 0.00 0.02 0.00 89 1020.9
20260831083415 70 179 1.0 1.0 0.00 0.02 0.00 89 1020.7
20260831082937 71 0.0 0.0 0.00 0.02 0.00 89 1020.7
20260831082417 71 0.0 0.0 0.00 0.02 0.00 89 1020.7
20260831081936 70 0.0 0.0 0.00 0.02 0.00 90 1020.7
20260831081415 70 0.0 0.0 0.00 0.02 0.00 92 1020.7
20260831080917 70 0.0 0.0 0.00 0.02 0.00 92 1020.7
20260831080416 70 0.0 0.0 0.00 0.02 0.00 92 1020.8
20260831075915 70 179 1.0 1.0 0.00 0.02 0.00 91 1020.8
20260831075417 70 0.0 0.0 0.00 0.02 0.00 91 1020.8
20260831074916 70 0.0 0.0 0.00 0.02 0.00 91 1020.8
20260831074415 70 0.0 0.0 0.00 0.02 0.00 91 1020.8
20260831073919 70 0.0 0.0 0.00 0.02 0.00 91 1020.8
20260831073419 0 0.0 0.0 0.00 0.02 0.00
20260831073115 70 0.0 0.0 0.00 0.02 0.00 91 1020.8
20260831072635 70 0.0 0.0 0.00 0.02 0.00 91 1020.8
20260831072117 70 0.0 0.0 0.00 0.02 0.00 91 1020.8
20260831071636 70 0.0 0.0 0.00 0.02 0.00 91 1020.9
20260831071115 70 0.0 0.0 0.00 0.02 0.00 91 1020.9
20260831070617 70 0.0 0.0 0.00 0.02 0.00 91 1021.0
20260831070156 70 0.0 0.0 0.00 0.02 0.00 91 1021.1
20260831065615 70 0.0 0.0 0.00 0.02 0.00 91 1021.1
20260831065117 70 0.0 0.0 0.00 0.02 0.00 91 1021.1
20260831064616 70 0.0 0.0 0.00 0.02 0.00 91 1021.2
20260831064115 70 0.0 0.0 0.00 0.02 0.00 91 1021.2
20260831063616 70 0.0 0.0 0.00 0.02 0.00 91 1021.2
20260831063116 70 0.0 0.0 0.00 0.02 0.00 91 1021.2
20260831062618 70 0.0 0.0 0.00 0.02 0.00 91 1021.2
20260831062117 70 0.0 0.0 0.00 0.02 0.00 90 1021.2
20260831061636 70 0.0 0.0 0.00 0.02 0.00 90 1021.1
20260831061118 70 0.0 0.0 0.00 0.02 0.00 90 1021.0
20260831060637 70 0.0 0.0 0.00 0.02 0.00 90 1021.0
20260831060215 70 0.0 0.0 0.00 0.02 0.00 90 1021.0
20260831055717 70 179 0.0 2.0 0.00 0.02 0.00
20260831054817 71 175 1.0 1.0 0.00 0.02 0.00 89 1021.0
20260831054316 71 209 0.0 1.0 0.00 0.02 0.00 89 1021.0
20260831053815 71 0.0 0.0 0.00 0.02 0.00 89 1021.0
20260831053317 71 0.0 0.0 0.00 0.02 0.00 89 1020.9
20260831052816 70 209 1.0 1.0 0.00 0.02 0.00 89 1020.9
20260831052315 70 0.0 0.0 0.00 0.02 0.00 89 1020.9
20260831051817 70 0.0 0.0 0.00 0.02 0.00 89 1021.0
20260831051316 71 0.0 0.0 0.00 0.02 0.00 89 1021.0
20260831050815 71 0.0 0.0 0.00 0.02 0.00 89 1021.0
20260831050317 71 0.0 0.0 0.00 0.02 0.00 89 1021.0
20260831045819 71 0.0 0.0 0.00 0.02 0.00 88 1021.0
20260831045320 71 0.0 0.0 0.00 0.02 0.00 88 1021.0
20260831044817 71 209 0.0 1.0 0.00 0.02 0.00 87 1021.1
20260831044319 72 260 0.0 2.0 0.00 0.02 0.00 87 1021.2
20260831043815 72 0.0 0.0 0.00 0.02 0.00 87 1021.2
20260831043357 72 0.0 0.0 0.00 0.02 0.00
20260831043116 72 0.0 0.0 0.00 0.02 0.00 87 1021.2
20260831042618 72 260 0.0 1.0 0.00 0.02 0.00 86 1021.2
20260831042120 72 260 1.0 1.0 0.00 0.02 0.00 86 1021.1
20260831041636 72 260 1.0 1.0 0.00 0.02 0.00 86 1021.3
20260831041155 72 260 1.0 2.0 0.00 0.02 0.00 87 1021.3
20260831040620 71 0.0 0.0 0.00 0.02 0.00 87 1021.3
20260831040116 72 0.0 0.0 0.00 0.02 0.00 86 1021.1
20260831035618 72 0.0 0.0 0.00 0.02 0.02 87 1021.1
20260831035117 72 0.0 0.0 0.00 0.02 0.02 85 1021.1
20260831034619 72 0.0 0.0 0.00 0.02 0.02 85 1021.2
20260831034135 72 0.0 0.0 0.00 0.02 0.02 85 1021.2
20260831033617 72 0.0 0.0 0.00 0.02 0.02 85 1021.2
20260831033116 72 0.0 0.0 0.00 0.02 0.02 84 1021.5
20260831032615 72 0.0 0.0 0.00 0.02 0.02 84 1021.5
20260831032117 72 209 0.0 1.0 0.00 0.02 0.02 84 1021.5
20260831031616 72 0.0 0.0 0.00 0.02 0.02 84 1021.3
20260831031115 72 0.0 0.0 0.00 0.02 0.02 83 1021.3
20260831030620 72 235 0.0 2.0 0.00 0.02 0.02 83 1021.3
20260831030116 73 228 0.0 1.0 0.00 0.02 0.02 82 1021.6
20260831025615 73 219 1.0 1.0 0.00 0.02 0.02 82 1021.6
20260831025117 73 194 1.0 3.0 0.00 0.02 0.02 81 1021.6
20260831024619 73 255 1.0 2.0 0.00 0.02 0.02 81 1021.8
20260831024115 74 264 1.0 2.0 0.00 0.02 0.02 81 1021.8
20260831023637 74 309 0.0 1.0 0.00 0.02 0.02 81 1021.8
20260831023116 75 277 1.0 2.0 0.00 0.02 0.02 82 1021.6
20260831022615 75 242 2.0 5.0 0.00 0.02 0.02 82 1021.7
20260831022117 0 0.0 0.0 0.00 0.02 0.02 83
20260831021616 75 271 1.0 1.0 0.00 0.02 0.02 84 1021.4
20260831021115 75 0.0 0.0 0.00 0.02 0.02 84 1021.4
20260831020617 76 271 0.0 1.0 0.00 0.02 0.02 84 1021.4
20260831020119 76 271 1.0 1.0 0.00 0.02 0.02 84 1021.3
20260831015615 76 266 0.0 1.0 0.00 0.02 0.02 85 1021.2
20260831015117 76 0.0 0.0 0.00 0.02 0.02 85 1021.2
20260831014636 76 264 0.0 1.0 0.00 0.02 0.02 84 1021.4
20260831014115 76 264 1.0 2.0 0.00 0.02 0.02 83 1021.4
20260831013634 77 209 2.0 4.0 0.00 0.02 0.02 83 1021.4
20260831013139 77 262 1.0 2.0 0.00 0.02 0.02 83 1021.3
20260831012615 0 0.0 0.0 0.00 0.02 0.02
20260831012318 77 206 1.0 1.0 0.00 0.02 0.02 83 1021.2
20260831011817 77 197 1.0 4.0 0.00 0.02 0.02 84 1021.1
20260831011336 76 279 1.0 2.0 0.00 0.02 0.02 84 1021.1
20260831010818 76 0.0 0.0 0.00 0.02 0.02 84 1021.1
20260831010317 76 279 0.0 1.0 0.00 0.02 0.02 85 1020.7
20260831005816 76 279 0.0 2.0 0.00 0.02 0.02 86 1020.7
20260831005318 75 0.0 0.0 0.00 0.02 0.02 87 1020.6
20260831004817 75 0.0 0.0 0.00 0.02 0.02 87 1020.6
20260831004359 75 0.0 0.0 0.00 0.02 0.02 87 1020.6
20260831003815 75 0.0 0.0 0.00 0.02 0.02 87 1020.6
20260831003317 75 0.0 0.0 0.00 0.02 0.02 87 1020.4
20260831002819 75 0.0 0.0 0.00 0.02 0.02 86 1020.4
20260831002318 76 0.0 0.0 0.00 0.02 0.02 86 1020.4
20260831001937 76 0.0 0.0 0.00 0.02 0.02 85 1020.4
20260831001316 76 0.0 0.0 0.00 0.02 0.02 85 1020.4
20260831000815 76 0.0 0.0 0.00 0.02 0.02 84 1020.4
20260831000320 77 0.0 0.0 0.00 0.02 0.02 83 1020.3
20260830235819 77 279 0.0 2.0 0.00 0.02 0.02 82 1020.3
20260830235318 77 0.0 0.0 0.00 0.02 0.02 82 1020.3
20260830234814 77 0.0 0.0 0.00 0.02 0.02 82 1020.5
20260830234316 77 279 0.0 1.0 0.00 0.02 0.02 82 1020.5
20260830233818 77 279 0.0 1.0 0.00 0.02 0.02 82 1020.5
20260830233337 77 0.0 0.0 0.00 0.02 0.02 83 1020.5
20260830232816 77 0.0 0.0 0.00 0.02 0.02 82 1020.5
20260830232338 77 279 0.0 1.0 0.00 0.02 0.02 82 1020.5